Back to catalog

STARLINK-33654

AliveCommunicationsVLEO
NORAD 63466·PAYLOAD·🇺🇸 United States

Launched Apr 6, 2025 from Cape Canaveral Space Force Station

Loading…

Next Passes (next 24 hours)

TLE

FreshSource: CelesTrak SupGP

Epoch: Sep 14, 2026, 14:22 UTC

1 63466C 25070G   26257.59909722  .00024240  00000+0  87819-3 0  2578
2 63466  43.0024 272.9542 0001529 276.4023 224.5584 15.27558629    13

Track STARLINK-33654 in real time with AllMySat

Download on the App Store